User: anonymous   Login
Location: Albuquerque Trailhead
(34.7934°N, 106.3736°W)
Time: 11:31:00
(UTC+00:00)
Language:

Resurs 1-4 Rocket - Orbit

View from above orbital plane
View from above orbital plane
View from above satellite
View from above satellite

Ground track
Ground track

The orbit data is extracted from the following two-line orbital elements,

1 25400U 98043G   21259.89308328 -.00000013  00000-0  13068-4 0  9992
2 25400  98.6427 194.4078 0011062  85.6043 274.6401 14.25482381206042
Epoch (UTC): 16 September 2021 21:26:02
Eccentricity: 0.0011062
inclination: 98.6427°
perigee height: 799 km
apogee height: 815 km
right ascension of ascending node: 194.4078°
argument of perigee: 85.6043°
revolutions per day: 14.25482381
mean anomaly at epoch: 274.6401°
orbit number at epoch: 20604

The dashed part of the orbit path shows where the satellite is in the earth's shadow,  

DLR